• In United Kingdom
  • List of Countries
  • For 7 days
  • Water Temperature
  • Satellite Maps
  • Weather Map
  • Weather Widgets
  • user-avatar
    Login

    Hourly Weather Tuzla

    Today, 14 December, Thursday

    Time Temperature Precipitation Wind Pressure Humidity
    00:00 +2°C° 0 mm 2 mps 719 mmHg 91%
    01:00 +2°C° 0 mm 2 mps 719 mmHg 91%
    02:00 +2°C° 0 mm 2 mps 718 mmHg 90%
    03:00 +2°C° 0 mm 2 mps 718 mmHg 90%
    04:00 +2°C° 0 mm 2 mps 718 mmHg 89%
    05:00 +2°C° 0 mm 2 mps 718 mmHg 88%
    06:00 +1°C° 0 mm 3 mps 717 mmHg 87%
    07:00 +1°C° 0 mm 3 mps 717 mmHg 86%
    08:00 +3°C° 0 mm 3 mps 717 mmHg 83%
    09:00 +4°C° 0 mm 4 mps 717 mmHg 81%
    10:00 +5°C° 0 mm 4 mps 717 mmHg 78%
    11:00 +5°C° 0.1 mm 4 mps 717 mmHg 77%
    12:00 +6°C° 0.1 mm 4 mps 717 mmHg 77%
    13:00 +7°C° 0.1 mm 4 mps 717 mmHg 77%
    14:00 +6°C° 0 mm 4 mps 717 mmHg 78%
    15:00 +6°C° 0 mm 4 mps 716 mmHg 79%
    16:00 +6°C° 0 mm 4 mps 716 mmHg 80%
    17:00 +7°C° 0 mm 3 mps 716 mmHg 82%
    18:00 +5°C° 0 mm 3 mps 716 mmHg 85%
    19:00 +6°C° 0 mm 2 mps 716 mmHg 87%
    20:00 +6°C° 0 mm 2 mps 716 mmHg 88%
    21:00 +6°C° 0 mm 2 mps 716 mmHg 88%
    22:00 +6°C° 0 mm 2 mps 716 mmHg 89%
    23:00 +5°C° 0 mm 3 mps 715 mmHg 88%

    Tomorrow, 15 December, Friday

    Time Temperature Precipitation Wind Pressure Humidity
    00:00 +5°C° 0 mm 3 mps 715 mmHg 88%
    01:00 +5°C° 0 mm 3 mps 715 mmHg 87%
    02:00 +5°C° 0 mm 3 mps 714 mmHg 86%
    03:00 +5°C° 0 mm 3 mps 714 mmHg 86%
    04:00 +5°C° 0 mm 3 mps 714 mmHg 85%
    05:00 +7°C° 0 mm 3 mps 714 mmHg 85%
    06:00 +6°C° 0 mm 4 mps 713 mmHg 85%
    07:00 +6°C° 0 mm 4 mps 713 mmHg 85%
    08:00 +7°C° 0 mm 4 mps 713 mmHg 82%
    09:00 +10°C° 0 mm 4 mps 713 mmHg 79%
    10:00 +10°C° 0 mm 5 mps 713 mmHg 76%
    11:00 +12°C° 0 mm 4 mps 713 mmHg 75%
    12:00 +12°C° 0 mm 4 mps 713 mmHg 74%
    13:00 +13°C° 0 mm 3 mps 712 mmHg 72%
    14:00 +12°C° 0.1 mm 3 mps 712 mmHg 77%
    15:00 +11°C° 0.1 mm 3 mps 712 mmHg 81%
    16:00 +10°C° 0.1 mm 2 mps 711 mmHg 86%
    17:00 +9°C° 1.4 mm 2 mps 711 mmHg 88%
    18:00 +9°C° 1.4 mm 2 mps 711 mmHg 89%
    19:00 +8°C° 1.4 mm 2 mps 711 mmHg 91%
    20:00 +8°C° 0.9 mm 2 mps 711 mmHg 91%
    21:00 +8°C° 0.9 mm 2 mps 711 mmHg 92%
    22:00 +7°C° 0.9 mm 2 mps 711 mmHg 92%
    23:00 +7°C° 2.3 mm 2 mps 711 mmHg 92%

    Day after tomorrow, 16 December, Saturday

    Time Temperature Precipitation Wind Pressure Humidity
    00:00 +5°C° 2.3 mm 3 mps 711 mmHg 92%
    01:00 +5°C° 2.3 mm 3 mps 711 mmHg 92%
    02:00 +5°C° 2.1 mm 2 mps 711 mmHg 92%
    03:00 +5°C° 2.1 mm 2 mps 711 mmHg 93%
    04:00 +5°C° 2.1 mm 1 mps 712 mmHg 93%
    05:00 +5°C° 1.3 mm 1 mps 712 mmHg 93%
    06:00 +5°C° 1.3 mm 1 mps 712 mmHg 93%
    07:00 +5°C° 1.3 mm 1 mps 713 mmHg 93%
    08:00 +5°C° 0.7 mm 1 mps 713 mmHg 93%
    09:00 +5°C° 0.7 mm 1 mps 714 mmHg 92%
    10:00 +5°C° 0.7 mm 1 mps 714 mmHg 92%
    11:00 +5°C° 0.9 mm 1 mps 714 mmHg 92%
    12:00 +4°C° 0.9 mm 1 mps 714 mmHg 92%
    13:00 +4°C° 0.9 mm 1 mps 714 mmHg 92%
    14:00 +4°C° 1.5 mm 1 mps 714 mmHg 93%
    15:00 +3°C° 1.5 mm 1 mps 715 mmHg 94%
    16:00 +3°C° 1.5 mm 1 mps 715 mmHg 95%
    17:00 +3°C° 1.1 mm 1 mps 715 mmHg 95%
    18:00 +3°C° 1.1 mm 1 mps 715 mmHg 95%
    19:00 +2°C° 1.1 mm 1 mps 716 mmHg 95%
    20:00 +1°C° 1 mm 2 mps 716 mmHg 95%
    21:00 +1°C° 1 mm 2 mps 716 mmHg 95%
    22:00 +1°C° 1 mm 2 mps 716 mmHg 95%
    23:00 +1°C° 1.1 mm 2 mps 716 mmHg 95%

    17 December, Sunday

    Time Temperature Precipitation Wind Pressure Humidity
    00:00 +1°C° 1.1 mm 2 mps 717 mmHg 95%
    01:00 +1°C° 1.1 mm 2 mps 717 mmHg 94%
    02:00 -1°C° 0.7 mm 2 mps 717 mmHg 94%
    03:00 -1°C° 0.7 mm 2 mps 717 mmHg 94%
    04:00 -1°C° 0.7 mm 2 mps 717 mmHg 93%
    05:00 -1°C° 0.4 mm 2 mps 718 mmHg 93%
    06:00 -1°C° 0.4 mm 2 mps 718 mmHg 93%
    07:00 -2°C° 0.4 mm 3 mps 719 mmHg 92%
    08:00 -1°C° 0.2 mm 3 mps 720 mmHg 91%
    09:00 -1°C° 0.2 mm 3 mps 720 mmHg 90%
    10:00 -1°C° 0.2 mm 3 mps 721 mmHg 89%
    11:00 -1°C° 0.2 mm 3 mps 721 mmHg 89%
    12:00 -1°C° 0.2 mm 3 mps 721 mmHg 89%
    13:00 -1°C° 0.2 mm 3 mps 722 mmHg 88%
    14:00 -1°C° 0.1 mm 3 mps 722 mmHg 89%
    15:00 -1°C° 0.1 mm 2 mps 723 mmHg 89%
    16:00 -2°C° 0.1 mm 2 mps 723 mmHg 90%
    17:00 -2°C° 0.1 mm 2 mps 724 mmHg 90%
    18:00 -2°C° 0.1 mm 2 mps 724 mmHg 90%
    19:00 -2°C° 0.1 mm 2 mps 725 mmHg 91%
    20:00 -3°C° 0.1 mm 2 mps 725 mmHg 91%
    21:00 -3°C° 0.1 mm 2 mps 726 mmHg 91%
    22:00 -1°C° 0.1 mm 1 mps 726 mmHg 91%
    23:00 -2°C° 0.1 mm 1 mps 726 mmHg 92%

    18 December, Monday

    Time Temperature Precipitation Wind Pressure Humidity
    00:00 -2°C° 0.1 mm 1 mps 727 mmHg 92%
    01:00 -2°C° 0.1 mm 1 mps 727 mmHg 93%
    02:00 -2°C° 0.1 mm 1 mps 727 mmHg 93%
    03:00 -2°C° 0.1 mm 1 mps 727 mmHg 93%
    04:00 -2°C° 0.1 mm 1 mps 727 mmHg 93%
    05:00 -2°C° 0.2 mm 1 mps 728 mmHg 94%
    06:00 -2°C° 0.2 mm 1 mps 728 mmHg 94%
    07:00 -2°C° 0.2 mm 1 mps 728 mmHg 94%
    08:00 -3°C° 0.1 mm 2 mps 729 mmHg 92%
    09:00 -3°C° 0.1 mm 2 mps 729 mmHg 90%
    10:00 -2°C° 0.1 mm 2 mps 729 mmHg 89%
    11:00 -2°C° 0.1 mm 2 mps 729 mmHg 88%
    12:00 -2°C° 0.1 mm 2 mps 729 mmHg 86%
    13:00 -1°C° 0.1 mm 2 mps 728 mmHg 85%
    14:00 -2°C° 0.1 mm 2 mps 728 mmHg 87%
    15:00 -1°C° 0.1 mm 1 mps 728 mmHg 88%
    16:00 -1°C° 0.1 mm 1 mps 728 mmHg 89%
    17:00 -2°C° 0 mm 1 mps 728 mmHg 89%
    18:00 -3°C° 0 mm 1 mps 728 mmHg 89%
    19:00 -4°C° 0 mm 1 mps 728 mmHg 90%
    20:00 -4°C° 0 mm 1 mps 728 mmHg 89%
    21:00 -4°C° 0 mm 1 mps 728 mmHg 89%
    22:00 -6°C° 0 mm 1 mps 728 mmHg 88%
    23:00 -6°C° 0 mm 1 mps 729 mmHg 87%

    19 December, Tuesday

    Time Temperature Precipitation Wind Pressure Humidity
    00:00 -6°C° 0 mm 1 mps 729 mmHg 86%
    01:00 -6°C° 0 mm 1 mps 729 mmHg 85%
    02:00 -6°C° 0 mm 1 mps 729 mmHg 84%
    03:00 -7°C° 0 mm 2 mps 729 mmHg 83%
    04:00 -7°C° 0 mm 2 mps 729 mmHg 82%
    05:00 -6°C° 0 mm 1 mps 729 mmHg 81%
    06:00 -6°C° 0 mm 1 mps 729 mmHg 80%
    07:00 -6°C° 0 mm 1 mps 729 mmHg 80%
    08:00 -3°C° 0 mm 1 mps 730 mmHg 79%
    09:00 -2°C° 0 mm 1 mps 730 mmHg 79%
    10:00 0°C° 0 mm 1 mps 731 mmHg 78%
    11:00 +1°C° 0 mm 1 mps 730 mmHg 80%
    12:00 +2°C° 0 mm 1 mps 730 mmHg 82%
    13:00 +2°C° 0 mm 0 mps 730 mmHg 84%
    14:00 +1°C° 0 mm 0 mps 730 mmHg 85%
    15:00 0°C° 0 mm 0 mps 730 mmHg 86%
    16:00 0°C° 0 mm 0 mps 730 mmHg 87%
    17:00 0°C° 0.1 mm 0 mps 730 mmHg 88%
    18:00 +1°C° 0.1 mm 1 mps 731 mmHg 89%
    19:00 +1°C° 0.1 mm 1 mps 731 mmHg 91%
    20:00 +1°C° 0.3 mm 1 mps 731 mmHg 92%
    21:00 +1°C° 0.3 mm 1 mps 731 mmHg 93%
    22:00 +1°C° 0.3 mm 1 mps 731 mmHg 94%
    23:00 +1°C° 0.4 mm 1 mps 731 mmHg 94%
    Show more